SCP
4 4 3 3 2 2 2 2 2 2 2 2 1 1 1 1 1 1 1 1 1 1 1 1 0 0 0 0 0 0 0 0 0 0 1 1 1 0 0 0 1 1 1
7 5 4 3 3 3 2 2 2 3 2 2 2 1 1 1 1 1 1 1 1 1 1 1 0 0 0 0 0 0 0 0 0 1 1 1 0 0 0 0 0 1 1
7 7 4 3 4 4 3 2 3 4 4 3 2 2 1 1 1 1 1 1 1 1 1 1 0 0 0 0 0 0 0 0 1 1 1 0 0 0 0 0 0 0 1
5 6 6 5 4 4 3 3 3 4 5 4 4 3 2 2 2 1 1 1 1 1 1 1 0 0 0 0 0 0 1 1 1 1 0 0 0 0 0 0 0 0 0
4 5 6 6 4 4 4 4 4 4 5 6 5 4 3 2 2 1 1 1 1 1 1 1 1 0 0 1 1 1 1 1 1 1 1 0 0 0 0 0 0 0 1
4 5 6 6 4 4 4 5 5 5 6 6 6 5 3 2 2 1 1 1 1 1 1 1 1 1 1 1 1 1 1 1 1 1 1 1 0 0 0 1 1 1 2
4 5 6 5 4 4 5 5 7 7 7 7 6 5 4 3 2 2 1 1 1 1 1 1 1 1 1 2 2 2 1 2 2 2 1 1 1 1 1 1 2 3 3
5 5 5 5 5 5 5 6 7 8 8 8 7 6 4 4 3 2 2 1 1 1 1 1 1 1 2 3 3 2 2 2 2 2 1 1 1 1 2 3 4 4 4
7 6 5 5 6 6 6 6 7 7 8 8 8 7 6 5 4 3 3 2 1 1 2 2 2 2 3 3 3 2 2 2 2 2 2 2 2 2 3 4 4 4 4
6 6 5 5 5 5 5 5 6 7 8 9 9 8 7 6 5 4 3 2 2 2 2 3 3 3 3 3 3 2 2 2 2 2 2 3 3 3 3 3 3 3 3
5 5 5 4 4 4 4 5 6 7 9 11 11 9 9 8 6 5 4 3 2 2 3 3 3 2 2 2 2 2 2 2 2 3 3 3 3 4 3 3 3 3 3
5 5 5 5 4 4 4 5 6 8 11 12 13 12 11 9 8 6 4 3 3 3 3 3 2 2 2 2 2 2 3 3 3 3 3 3 4 4 4 4 4 4 3
5 5 6 6 5 5 5 6 8 10 12 13 15 15 13 12 9 7 5 4 3 3 3 3 3 4 4 3 2 3 3 3 3 4 4 4 4 4 4 4 4 4 3
8 9 11 11 9 9 9 10 11 11 12 14 17 17 16 14 11 9 7 5 4 3 3 3 4 4 4 3 3 3 4 4 4 5 5 5 5 4 4 3 3 3 2
12 15 17 17 16 15 15 16 15 13 12 15 17 18 17 15 12 10 8 6 5 4 3 3 4 4 4 3 3 4 4 4 5 5 5 5 4 3 3 2 2 2 2
13 15 19 20 19 18 18 18 16 14 13 15 17 17 16 15 12 10 8 6 5 4 4 4 4 3 3 3 3 3 3 3 4 4 4 4 3 2 2 2 1 1 1
9 11 14 15 15 15 15 14 13 13 13 13 14 15 15 14 12 11 9 7 6 5 5 4 3 3 3 2 2 2 2 2 3 3 3 3 3 2 2 2 1 1 1
6 6 7 8 9 8 8 9 9 11 11 11 11 12 14 14 12 11 10 9 8 7 6 4 3 3 2 2 1 1 1 2 2 3 4 4 4 3 2 2 2 1 1
3 3 4 5 5 5 5 6 7 9 10 9 9 11 14 14 12 10 10 10 10 9 6 4 4 3 3 2 1 1 2 2 2 3 3 4 4 3 2 2 2 1 1
3 3 4 5 6 6 5 5 6 6 7 8 8 9 11 12 10 8 8 8 9 8 5 4 4 4 4 3 2 1 2 2 2 2 2 2 2 2 1 1 1 1 1
3 4 5 6 7 7 6 5 5 4 5 7 8 8 7 7 7 6 5 5 5 5 4 4 5 5 5 4 2 1 2 2 2 2 2 2 1 1 1 1 1 1 1
4 4 5 6 7 7 7 5 4 3 4 5 7 7 5 4 4 4 4 3 3 3 4 4 5 6 5 5 3 2 1 2 2 2 2 2 1 1 0 0 0 0 0
5 4 4 4 5 5 5 4 3 3 3 4 5 6 5 4 4 4 4 3 3 3 5 5 4 6 6 6 5 2 1 1 2 2 2 2 1 1 0 0 0 0 0
5 4 4 3 3 4 4 3 2 2 2 3 4 5 4 4 4 4 4 3 2 3 5 5 4 4 6 6 6 4 2 2 2 3 2 2 1 1 1 1 0 0 0
5 4 4 3 3 2 2 2 2 2 2 2 3 4 4 4 3 4 4 4 3 3 3 4 3 3 4 4 5 5 4 4 4 4 3 2 1 1 1 1 1 0 0
4 4 4 3 2 2 2 1 1 1 1 1 2 4 4 4 3 3 4 4 3 2 2 3 3 3 2 3 3 5 6 6 5 5 4 3 2 2 2 1 1 0 0
Wind_Speed
11 10 11 12 11 10 9 8 7 7 5 3 3 2 2 2 2 2 4 4 4 4 3 2 2 2 2 2 2 1 1 0 1 2 1 2 1 1 2 2 2 3 4
10 10 10 10 10 10 10 9 8 7 6 4 3 3 3 2 2 2 3 4 4 4 4 3 3 2 2 2 1 2 1 0 1 2 1 2 3 3 2 1 2 3 2
15 14 14 13 13 13 12 11 10 8 7 6 3 2 2 1 1 1 2 2 4 4 3 4 3 3 3 2 2 2 3 1 1 1 2 2 2 2 3 2 1 1 1
13 13 13 13 14 14 12 10 10 9 8 7 6 6 5 4 4 3 2 2 3 4 4 4 4 4 3 3 3 3 2 3 1 1 1 2 3 1 2 3 2 1 2
14 14 14 14 12 12 12 10 9 8 8 7 7 6 5 4 3 3 3 3 3 4 4 4 4 4 3 3 3 3 3 3 3 2 1 1 1 2 2 2 3 2 2
13 13 12 10 9 10 10 9 9 8 8 8 7 7 7 5 5 4 4 3 2 2 4 4 4 4 3 4 3 3 3 3 3 2 2 2 2 2 2 2 3 3 3
13 12 11 10 10 11 11 10 10 9 9 8 8 8 7 7 7 6 5 4 3 3 4 4 4 3 3 3 3 3 3 3 3 3 2 2 2 2 2 2 2 2 3
10 11 12 12 12 12 12 12 12 10 10 9 8 7 7 6 5 6 5 5 5 4 5 5 4 4 4 4 3 3 3 2 2 3 2 2 2 2 2 3 2 1 2
10 11 11 11 12 12 13 13 12 10 10 10 9 8 7 6 5 5 5 4 4 5 5 5 5 4 4 4 3 2 3 2 2 3 3 2 2 1 2 2 3 3 2
8 9 10 10 11 11 11 11 11 11 10 10 9 8 7 7 6 5 5 5 5 4 5 5 5 4 4 4 3 3 3 3 2 2 2 2 2 1 1 2 2 3 3
8 8 7 8 8 8 8 9 9 9 9 9 8 8 7 6 6 5 6 5 5 5 5 5 5 5 4 4 4 4 3 3 2 2 2 3 2 1 1 1 1 2 2
6 6 6 7 6 7 7 7 8 9 9 9 9 9 7 7 7 6 6 5 5 5 5 5 5 5 5 4 5 5 4 4 4 3 3 3 2 2 2 1 2 2 2
4 4 4 5 6 6 6 6 6 7 7 7 8 8 7 8 8 8 6 6 5 5 4 5 5 5 4 4 4 5 4 4 4 4 4 4 3 3 2 2 2 2 2
3 3 3 3 4 5 5 5 5 5 6 6 7 8 8 8 8 7 7 6 6 5 5 5 5 5 5 4 4 4 4 4 4 4 4 4 4 4 4 3 3 2 2
2 2 2 2 2 2 3 3 4 4 5 6 7 8 7 7 6 6 6 6 6 6 5 5 4 4 4 4 4 4 4 4 3 3 3 3 3 4 4 3 3 2 1
3 2 2 2 2 2 3 3 4 5 5 7 6 6 5 6 6 6 6 6 6 5 5 5 4 4 4 5 6 4 3 3 3 3 3 2 2 2 3 3 3 4 3
4 3 3 3 3 3 3 4 4 4 4 5 5 5 6 6 6 7 6 6 6 5 5 5 4 4 5 5 5 5 4 3 3 4 3 2 1 1 1 0 1 1 2
2 2 1 1 1 1 2 3 3 3 4 4 5 5 5 5 4 4 5 5 5 5 5 5 4 4 4 5 4 4 3 3 3 3 4 4 2 2 2 2 1 1 1
3 2 2 2 1 1 2 2 2 3 2 3 3 4 5 5 4 4 3 3 4 4 4 4 5 4 4 4 5 4 2 2 2 2 2 3 3 4 4 3 2 0 2
1 1 1 1 1 0 1 2 2 3 3 2 2 2 3 4 4 4 3 3 3 4 4 4 4 4 4 4 4 5 2 2 1 1 1 2 3 4 5 4 3 2 2
1 2 2 2 1 1 2 2 1 2 2 2 2 2 2 3 3 3 2 2 2 3 3 3 3 3 3 4 4 5 3 3 2 1 1 1 2 3 4 3 3 4 2
1 2 2 1 1 1 2 2 1 1 1 3 3 2 2 2 2 3 3 3 3 4 3 3 2 1 2 3 3 5 4 4 3 2 1 1 2 3 2 2 2 2 2
1 2 2 2 1 1 1 2 2 1 2 2 2 2 2 2 2 3 3 2 3 3 3 3 3 2 1 2 4 4 3 3 2 2 2 2 3 3 1 1 2 2 1
1 1 2 2 1 1 1 1 2 2 2 2 2 2 2 1 1 2 2 3 3 3 3 3 3 2 1 1 2 2 2 2 2 1 2 3 3 2 2 1 1 1 1
1 1 2 2 1 1 0 1 1 2 2 2 2 2 2 2 2 2 1 2 2 4 5 4 4 4 3 3 4 3 3 3 2 3 2 2 2 1 1 1 1 1 1
0 1 1 1 1 1 1 1 1 3 3 2 1 1 2 2 2 2 2 3 2 2 3 4 5 3 4 5 5 4 4 5 6 5 2 1 1 1 1 1 0 0 0
Wind_Direction
183 176 174 169 165 165 163 165 166 172 165 156 154 150 157 159 159 168 169 169 169 164 157 156 153 150 145 156 154 137 127 109 93 73 7 332 293 250 238 222 211 220 217
172 175 172 171 169 172 172 169 172 175 174 174 169 161 157 165 168 170 171 173 170 172 172 161 157 154 134 128 144 135 124 157 121 127 94 349 339 322 277 252 221 226 216
179 179 180 181 175 180 180 178 179 177 177 169 151 142 109 96 128 168 184 189 175 173 166 165 159 156 153 175 188 168 156 182 239 165 148 156 240 305 321 308 276 245 229
182 183 182 183 184 184 179 175 176 176 175 168 164 166 169 178 192 182 185 192 184 176 172 169 169 167 172 185 196 181 176 166 197 245 206 188 173 175 314 322 313 285 250
185 186 187 188 185 180 176 176 174 178 177 173 175 177 186 187 179 172 179 190 195 190 182 175 171 174 178 183 190 185 183 177 182 195 200 199 190 181 181 273 303 314 280
188 186 183 177 176 175 176 175 175 182 181 178 180 184 187 181 174 181 185 194 199 202 196 182 177 181 184 189 194 188 183 188 185 190 185 178 181 197 186 223 259 277 282
183 178 173 174 175 175 178 178 179 184 184 184 189 191 192 186 188 188 190 189 192 204 208 197 185 186 192 190 183 179 185 187 185 197 205 201 203 190 179 191 241 266 281
171 174 174 174 177 180 183 183 185 187 185 188 195 197 193 193 197 195 191 194 200 205 202 194 191 192 192 193 179 179 191 186 196 207 204 209 225 199 187 183 187 260 291
170 171 174 176 178 182 190 189 184 187 190 191 192 195 195 196 199 198 194 194 199 201 197 194 193 196 196 188 176 191 202 194 203 211 204 207 228 209 203 189 180 182 246
164 168 174 178 181 186 190 189 185 189 193 193 193 194 196 198 200 195 200 196 197 199 188 189 191 194 193 188 185 196 204 201 223 214 200 212 225 222 208 196 200 193 197
163 161 165 175 174 173 182 189 190 190 192 193 194 196 195 199 198 201 202 198 194 189 188 189 190 196 200 195 190 200 199 203 222 224 203 223 218 211 224 208 202 209 194
155 158 159 158 162 168 173 183 193 193 194 193 193 198 197 197 200 207 201 193 197 196 193 189 191 197 195 191 192 202 202 201 210 218 214 233 227 222 222 205 215 222 209
126 132 145 161 170 171 173 180 186 190 191 188 192 197 197 198 202 205 202 197 197 199 196 190 193 196 196 195 199 200 203 208 213 212 212 226 212 224 225 215 222 229 229
117 120 136 160 171 171 175 182 185 183 181 188 196 200 201 203 204 202 199 197 194 195 196 195 199 197 196 198 200 199 206 214 219 218 213 215 210 215 216 220 222 222 227
92 96 126 146 146 168 181 172 175 180 181 186 196 205 207 201 197 200 200 196 196 201 195 191 198 202 200 204 199 202 204 209 217 227 226 224 219 219 215 215 218 209 213
136 127 143 150 153 173 193 187 191 192 186 188 196 198 195 190 191 197 198 194 198 199 190 193 196 204 220 210 198 190 201 207 210 219 231 233 226 224 218 216 213 196 195
141 154 173 175 181 188 184 197 205 198 186 190 191 190 189 188 195 200 196 199 200 195 192 196 196 208 218 194 193 198 198 204 211 212 212 223 224 198 139 106 61 240 223
156 171 173 185 198 188 179 192 183 178 189 193 196 198 191 189 195 197 202 208 199 190 188 190 192 195 207 191 196 200 207 212 218 217 209 199 208 204 159 142 115 286 283
173 182 185 181 181 183 175 150 155 156 171 188 194 190 183 182 180 188 203 209 191 185 183 186 190 191 212 198 192 188 199 208 217 212 206 194 198 200 170 151 160 316 324
140 156 158 122 128 210 140 129 151 156 174 183 180 173 174 177 180 188 191 198 189 188 179 186 194 191 205 197 187 181 186 194 215 225 231 215 201 196 182 173 171 190 251
124 139 122 115 156 120 110 120 143 187 193 156 140 140 163 170 171 178 176 179 178 163 158 166 191 199 205 186 182 179 185 185 183 196 237 256 208 193 191 184 187 206 198
74 98 96 69 32 92 113 122 181 211 162 143 145 155 153 157 157 166 167 161 164 157 162 158 183 214 210 184 177 170 172 168 161 182 210 239 193 173 173 164 156 159 129
102 97 104 80 42 52 139 156 220 190 143 132 144 153 138 139 169 172 177 171 174 170 170 170 181 204 215 184 156 149 149 144 156 172 172 149 137 124 124 117 118 120 108
119 112 112 106 67 29 65 170 183 163 142 141 145 138 136 132 140 154 169 174 177 172 174 174 180 185 185 192 168 159 153 131 117 109 94 94 96 97 102 84 69 83 124
187 142 142 143 165 180 163 160 135 127 122 130 136 133 140 146 126 110 115 167 181 182 180 184 178 174 191 212 182 169 169 166 159 124 85 77 77 78 61 56 39 41 58
128 116 134 164 180 133 121 137 141 136 138 134 141 142 147 146 139 132 90 55 89 127 166 178 177 190 195 180 170 167 163 152 143 127 131 143 150 160 172 171 207 305 254